Pauls Valley, OK

8:01 PM CDT on April 30, 2017 (GMT -0500)
Pauls Valley Municipal

Weather History for KPVJ - July, 2013

Change the Weather History Date:

Wednesday, July 3, 2013

  Actual Average (KADH) Record (KADH)
Temperature  
Mean Temperature 72 °F -  
Max Temperature 86 °F 91 °F 105 °F (1980)
Min Temperature 59 °F 70 °F 55 °F (2013)
Cooling Degree Days 8    
Growing Degree Days 22 (Base 50)    
Moisture  
Dew Point 53 °F    
Average Humidity 51    
Maximum Humidity 88    
Minimum Humidity 25    
Precipitation  
Precipitation 0.00 in - - ()
Sea Level Pressure  
Sea Level Pressure 30.05 in    
Wind  
Wind Speed 2 mph (ESE)    
Max Wind Speed 10 mph    
Max Gust Speed -    
Visibility 10 miles    
Events      
Averages and records for this station are not official NWS values.
T = Trace of Precipitation, MM = Missing Value Source: NWS Daily Summary

Daily Weather History Graph

Daily Weather History Graph

Search for Another Location

Airport or City:

Trip Planner

Search our weather history database for the weather conditions in past years. The results will help you decide how hot, cold, wet, or windy it might be!

Date:

Astronomy

Jul. 03, 2013 Rise Set
Actual Time 6:20 AM CDT 8:45 PM CDT
Civil Twilight 5:51 AM CDT 9:15 PM CDT
Nautical Twilight 5:14 AM CDT 9:51 PM CDT
Astronomical Twilight 4:35 AM CDT 10:31 PM CDT
Moon 2:54 AM CDT (7/3) 5:01 PM CDT (7/3)
Length of Visible Light 15h 24m
Length of Day
14h 25m
Waning Crescent, 18% of the Moon is Illuminated
Jul 3
Waning Crescent
Jul 8
New
Jul 15
First Quarter
Jul 22
Full
Jul 29
Last Quarter

Hourly Weather History & Observations

Time (CDT) Temp. Dew Point Humidity Pressure Visibility Wind Dir Wind Speed Gust Speed Precip Events Conditions
12:15 AM 68.0 °F 55.4 °F 64% 30.08 in 10.0 mi Calm Calm - N/A   Unknown
12:35 AM 66.2 °F 57.2 °F 73% 30.08 in 10.0 mi Calm Calm - N/A   Unknown
12:55 AM 66.2 °F 55.4 °F 68% 30.08 in 10.0 mi Calm Calm - N/A   Unknown
1:15 AM 66.2 °F 55.4 °F 68% 30.08 in 10.0 mi Calm Calm - N/A   Unknown
1:35 AM 66.2 °F 55.4 °F 68% 30.08 in 10.0 mi Calm Calm - N/A   Unknown
1:55 AM 64.4 °F 55.4 °F 73% 30.08 in 10.0 mi Calm Calm - N/A   Unknown
2:15 AM 66.2 °F 53.6 °F 64% 30.08 in 10.0 mi Calm Calm - N/A   Unknown
2:35 AM 64.4 °F 55.4 °F 73% 30.08 in 10.0 mi Calm Calm - N/A   Unknown
2:55 AM 62.6 °F 55.4 °F 77% 30.08 in 10.0 mi Calm Calm - N/A   Unknown
3:15 AM 62.6 °F 55.4 °F 77% 30.08 in 10.0 mi Calm Calm - N/A   Unknown
3:35 AM 62.6 °F 55.4 °F 77% 30.07 in 10.0 mi Calm Calm - N/A   Unknown
3:55 AM 62.6 °F 55.4 °F 77% 30.06 in 10.0 mi Calm Calm - N/A   Unknown
4:15 AM 62.6 °F 55.4 °F 77% 30.06 in 10.0 mi NE 3.5 mph - N/A   Unknown
4:35 AM 60.8 °F 55.4 °F 82% 30.06 in 10.0 mi NE 3.5 mph - N/A   Unknown
4:55 AM 60.8 °F 55.4 °F 82% 30.06 in 10.0 mi NE 4.6 mph - N/A   Unknown
5:15 AM 60.8 °F 55.4 °F 82% 30.06 in 10.0 mi NE 4.6 mph - N/A   Unknown
5:35 AM 60.8 °F 55.4 °F 82% 30.08 in 10.0 mi NE 4.6 mph - N/A   Unknown
5:55 AM 59.0 °F 55.4 °F 88% 30.08 in 10.0 mi NE 6.9 mph - N/A   Unknown
6:15 AM 59.0 °F 55.4 °F 88% 30.08 in 10.0 mi NE 3.5 mph - N/A   Unknown
6:35 AM 59.0 °F 55.4 °F 88% 30.08 in 10.0 mi ENE 3.5 mph - N/A   Unknown
6:55 AM 60.8 °F 55.4 °F 82% 30.08 in 10.0 mi Calm Calm - N/A   Unknown
7:15 AM 62.6 °F 55.4 °F 77% 30.08 in 10.0 mi Calm Calm - N/A   Unknown
7:35 AM 62.6 °F 55.4 °F 77% 30.08 in 10.0 mi Calm Calm - N/A   Unknown
7:55 AM 64.4 °F 55.4 °F 73% 30.09 in 10.0 mi Calm Calm - N/A   Unknown
8:15 AM 68.0 °F 55.4 °F 64% 30.10 in 10.0 mi Calm Calm - N/A   Unknown
8:35 AM 69.8 °F 53.6 °F 56% 30.10 in 10.0 mi Calm Calm - N/A   Unknown
8:55 AM 71.6 °F 53.6 °F 53% 30.11 in 10.0 mi Calm Calm - N/A   Unknown
9:15 AM 71.6 °F 55.4 °F 57% 30.11 in 10.0 mi Calm Calm - N/A   Unknown
9:35 AM 73.4 °F 53.6 °F 50% 30.11 in 10.0 mi South 3.5 mph - N/A   Unknown
9:55 AM 75.2 °F 53.6 °F 47% 30.10 in 10.0 mi SE 3.5 mph - N/A   Unknown
10:15 AM 77.0 °F 51.8 °F 41% 30.09 in 10.0 mi SSE 4.6 mph - N/A   Unknown
10:35 AM 78.8 °F 51.8 °F 39% 30.09 in 10.0 mi SSE 4.6 mph - N/A   Unknown
10:55 AM 78.8 °F 50.0 °F 36% 30.09 in 10.0 mi Calm Calm - N/A   Unknown
11:15 AM 80.6 °F 51.8 °F 37% 30.09 in 10.0 mi SSW 4.6 mph - N/A   Unknown
11:35 AM 80.6 °F 51.8 °F 37% 30.09 in 10.0 mi Calm Calm - N/A   Unknown
11:55 AM 80.6 °F 51.8 °F 37% 30.08 in 10.0 mi Calm Calm - N/A   Unknown
12:15 PM 82.4 °F 51.8 °F 35% 30.08 in 10.0 mi Calm Calm - N/A   Unknown
12:35 PM 82.4 °F 51.8 °F 35% 30.08 in 10.0 mi Calm Calm - N/A   Unknown
12:55 PM 80.6 °F 50.0 °F 34% 30.07 in 10.0 mi Calm Calm - N/A   Unknown
1:15 PM 84.2 °F 51.8 °F 33% 30.06 in 10.0 mi SE 6.9 mph - N/A   Unknown
1:35 PM 82.4 °F 50.0 °F 32% 30.06 in 10.0 mi SSE 3.5 mph - N/A   Unknown
1:55 PM 82.4 °F 51.8 °F 35% 30.05 in 10.0 mi Calm Calm - N/A   Unknown
2:15 PM 86.0 °F 51.8 °F 31% 30.04 in 10.0 mi NNE 6.9 mph - N/A   Unknown
2:35 PM 82.4 °F 48.2 °F 30% 30.04 in 10.0 mi Calm Calm - N/A   Unknown
2:55 PM 86.0 °F 48.2 °F 27% 30.03 in 10.0 mi NE 5.8 mph - N/A   Unknown
3:15 PM 86.0 °F 50.0 °F 29% 30.03 in 10.0 mi East 6.9 mph - N/A   Unknown
3:35 PM 82.4 °F 48.2 °F 30% 30.03 in 10.0 mi ESE 4.6 mph - N/A   Unknown
3:55 PM 82.4 °F 48.2 °F 30% 30.02 in 10.0 mi Calm Calm - N/A   Unknown
4:15 PM 86.0 °F 46.4 °F 25% 30.01 in 10.0 mi Calm Calm - N/A   Unknown
4:35 PM 86.0 °F 46.4 °F 25% 30.01 in 10.0 mi Calm Calm - N/A   Unknown
4:55 PM 86.0 °F 48.2 °F 27% 30.00 in 10.0 mi SSW 6.9 mph - N/A   Unknown
5:15 PM 86.0 °F 46.4 °F 25% 30.00 in 10.0 mi Calm Calm - N/A   Unknown
5:35 PM 86.0 °F 48.2 °F 27% 29.99 in 10.0 mi South 4.6 mph - N/A   Unknown
5:55 PM 86.0 °F 46.4 °F 25% 29.99 in 10.0 mi ESE 4.6 mph - N/A   Unknown
6:15 PM 86.0 °F 46.4 °F 25% 29.98 in 10.0 mi Calm Calm - N/A   Unknown
6:35 PM 86.0 °F 50.0 °F 29% 29.97 in 10.0 mi SE 4.6 mph - N/A   Unknown
6:55 PM 84.2 °F 51.8 °F 33% 29.97 in 10.0 mi ESE 10.4 mph - N/A   Unknown
7:15 PM 82.4 °F 51.8 °F 35% 29.97 in 10.0 mi ESE 8.1 mph - N/A   Unknown
7:35 PM 82.4 °F 51.8 °F 35% 29.98 in 10.0 mi ESE 5.8 mph - N/A   Unknown
7:55 PM 80.6 °F 51.8 °F 37% 29.98 in 10.0 mi ESE 8.1 mph - N/A   Unknown
8:15 PM 78.8 °F 53.6 °F 42% 29.98 in 10.0 mi SE 5.8 mph - N/A   Unknown
8:35 PM 78.8 °F 51.8 °F 39% 29.98 in 10.0 mi SE 5.8 mph - N/A   Unknown
8:55 PM 77.0 °F 51.8 °F 41% 29.98 in 10.0 mi SE 5.8 mph - N/A   Unknown
9:15 PM 77.0 °F 51.8 °F 41% 29.98 in 10.0 mi SE 4.6 mph - N/A   Unknown
9:35 PM 73.4 °F 53.6 °F 50% 29.99 in 10.0 mi SE 4.6 mph - N/A   Unknown
9:55 PM 73.4 °F 53.6 °F 50% 29.99 in 10.0 mi SE 4.6 mph - N/A   Unknown
10:15 PM 71.6 °F 53.6 °F 53% 30.00 in 10.0 mi ESE 5.8 mph - N/A   Unknown
10:35 PM 71.6 °F 53.6 °F 53% 30.01 in 10.0 mi SE 4.6 mph - N/A   Unknown
10:55 PM 71.6 °F 53.6 °F 53% 30.01 in 10.0 mi SE 4.6 mph - N/A   Unknown
11:15 PM 71.6 °F 53.6 °F 53% 30.01 in 10.0 mi SE 4.6 mph - N/A   Unknown
11:35 PM 69.8 °F 53.6 °F 56% 30.01 in 10.0 mi SE 4.6 mph - N/A   Unknown
11:55 PM 69.8 °F 53.6 °F 56% 30.01 in 10.0 mi SE 3.5 mph - N/A   Unknown